Terminal Aerodrome Forecast
Issued by NWS

Home | Current Version | Previous Version | Text Only | Print | Product List | Glossary On
Versions: 1 2 3 4 5 6 7 8 9 10 11 12 13 14 15 16 17 18 19 20 21 22 23 24 25 26 27 28 29 30 31 32 33 34 35 36 37 38 39 40 41 42 43 44 45 46 47 48 49 50
000
FTUS44 KHGX 271120
TAFUTS
TAFUTS
TAF
KUTS 271120Z 2712/2812 11007KT P6SM -RA SCT025 BKN110
     FM271500 12006KT P6SM SCT025 BKN035
     FM271800 17006KT P6SM BKN035
     FM280200 15003KT P6SM SCT035 BKN050 BKN250
     FM280600 VRB03KT P6SM SCT015 OVC025=

USA.gov is the U.S. government's official web portal to all federal, state and local government web resources and services.